Location: Unspecified
(0.0000°N, 0.0000°E)
Time: 09:27:51
(UTC+00:00)

deb NOAA 5 - Pass Details

Date: 20 February 2026
Orbit: 1470 x 1835 km, 102.5° (Epoch: 8 March)

Event Time Altitude Azimuth Distance (km) Brightness Sun altitude
Rises 22:15:46 0° 193° (SSW) 4,796 ? -58.8°
Reaches altitude 10° 22:19:41 10° 208° (SSW) 3,753 ? -59.7°
Enters shadow 22:20:16 12° 211° (SSW) 3,623 ? -59.9°
